Wind_Speed
17 17 18 18 19 20 20 20 20 20 19 20 19 18 18 18 17 17 17 17 17 16 16 16 16 16 17 18 17 16 16 17 17 16 16 17 17 17
18 19 19 19 19 20 20 20 21 21 20 20 19 19 19 18 18 18 18 18 18 18 18 18 18 17 17 18 18 18 18 18 19 19 19 18 18 18
20 20 20 21 21 21 21 21 21 20 20 20 21 21 21 20 19 19 20 20 20 19 19 19 20 19 19 19 20 20 21 21 21 21 21 20 20 20
21 22 22 22 22 23 22 22 22 21 21 21 22 22 23 23 22 21 22 22 21 21 22 22 22 22 21 21 22 22 22 22 23 22 22 21 21 21
23 23 23 23 23 24 23 22 22 23 23 23 22 23 23 23 23 23 24 24 24 24 24 24 24 24 23 23 23 24 24 24 25 24 24 23 23 23
24 24 24 24 24 24 23 24 24 24 24 25 24 24 24 24 25 25 25 25 25 26 26 26 26 26 25 25 25 25 26 26 25 25 25 24 24 24
24 24 24 24 24 24 24 24 24 25 25 25 24 24 25 25 26 25 25 26 26 27 27 27 27 27 26 26 27 27 27 27 27 27 26 26 26 26
24 25 25 25 25 25 24 25 25 25 25 25 25 26 26 27 28 28 28 27 27 28 28 28 28 28 28 28 28 28 29 28 29 29 29 29 29 28
26 25 25 25 26 26 26 26 26 26 26 26 26 27 28 28 28 29 29 28 28 29 30 30 30 30 30 30 30 31 30 30 30 31 31 30 31 31
27 26 26 26 27 27 27 27 27 27 27 27 27 28 29 29 29 29 30 31 31 32 32 32 32 33 33 32 32 32 32 32 32 33 33 33 33 33
26 27 27 28 28 28 28 28 28 29 29 29 29 29 30 30 30 31 31 31 31 31 32 32 31 32 33 33 33 33 33 33 33 33 33 34 34 34
27 28 28 28 28 28 29 29 30 30 29 29 30 30 30 31 31 31 31 32 31 32 33 33 32 32 32 33 33 33 33 34 34 34 34 35 35 35
27 28 28 28 28 28 29 29 29 30 30 30 30 30 30 31 31 31 32 32 32 33 33 33 32 32 32 32 32 32 33 33 33 34 34 35 35 35
28 28 28 28 28 28 28 29 29 30 30 30 30 31 31 32 32 32 33 34 33 34 34 34 33 32 32 32 32 32 33 33 33 33 34 35 35 35
28 28 28 29 29 29 30 30 31 31 31 31 32 32 33 33 34 34 35 35 35 35 35 35 34 33 33 33 33 33 33 33 33 34 34 34 34 35
28 28 29 30 30 30 30 30 31 31 31 31 32 33 33 33 34 35 35 35 35 35 36 35 35 34 34 34 34 33 33 33 33 33 34 34 34 34
29 29 29 30 31 31 31 31 31 31 32 32 33 33 33 34 35 35 36 36 36 36 35 36 36 35 35 34 33 34 34 34 33 33 33 33 34 34
30 30 30 30 30 30 30 31 32 33 33 34 34 34 34 35 35 35 35 35 36 36 36 36 34 33 33 33 33 33 33 33 33 32 33 33 33 34
30 30 29 30 30 30 31 32 32 32 33 34 35 34 34 35 35 35 35 35 35 35 35 34 32 32 31 32 32 32 32 32 32 32 32 32 33 33
30 30 30 30 31 31 31 32 33 33 34 34 34 34 34 34 34 34 34 34 34 34 34 33 31 31 31 31 30 30 31 32 32 32 32 31 31 31
30 31 32 32 33 33 32 33 34 34 34 33 33 33 33 33 33 33 33 33 33 33 32 32 31 31 32 31 30 29 30 30 30 30 31 31 31 30
31 33 34 34 34 34 34 34 34 34 33 33 33 32 33 33 32 32 32 32 32 32 31 31 31 32 32 31 31 30 29 29 29 29 29 29 30 30
33 34 34 35 35 35 35 35 35 34 34 34 34 33 33 32 32 32 33 33 33 32 32 32 32 32 31 31 31 30 29 29 28 27 27 28 28 29
Wind_Direction
299 297 295 293 291 289 290 290 288 284 283 282 282 283 282 279 276 276 277 277 276 276 274 273 271 270 265 263 263 262 264 263 262 263 263 262 261 261
300 298 295 293 291 291 290 288 288 285 281 280 280 283 286 281 276 275 276 276 276 275 273 272 272 271 268 265 263 260 261 263 263 263 264 266 263 259
298 297 295 294 292 291 290 285 285 286 284 281 282 283 283 282 279 275 274 274 275 273 273 273 271 270 268 266 263 260 260 261 262 262 264 265 265 262
296 297 296 295 292 290 289 286 284 284 283 281 281 280 280 278 277 275 274 274 272 272 271 271 270 269 268 267 266 264 263 262 262 261 262 263 264 265
294 295 296 296 294 292 288 287 286 283 282 280 280 279 279 278 276 276 275 273 271 271 271 271 270 269 269 269 268 266 264 263 262 261 260 262 263 264
293 294 295 296 295 293 290 288 286 284 282 281 280 280 278 278 276 275 274 273 272 271 271 272 271 270 269 270 268 267 266 264 263 262 261 261 262 263
296 295 295 295 296 294 291 289 286 284 283 282 282 281 279 279 277 276 276 274 272 271 271 271 272 271 270 270 269 268 268 265 263 261 262 262 262 262
296 295 295 295 295 295 292 289 286 285 284 283 283 283 283 282 279 278 279 277 275 274 273 272 271 270 269 268 270 270 268 267 264 262 262 263 264 263
295 294 294 295 294 293 293 291 288 286 285 284 283 282 283 283 281 279 278 277 276 275 274 273 271 271 270 269 269 269 268 268 266 264 262 262 263 264
295 295 296 295 294 293 292 291 288 287 286 284 283 283 283 282 280 279 278 279 279 279 279 278 275 274 273 273 271 270 269 268 266 265 264 262 261 262
297 297 296 296 294 293 292 291 290 287 285 284 284 284 284 283 280 279 280 281 281 281 281 280 276 275 274 272 270 270 269 268 266 265 263 262 261 260
299 299 298 296 294 293 292 291 290 290 288 286 285 285 284 283 282 281 281 281 281 280 280 280 277 276 274 272 271 270 269 267 265 264 264 263 262 261
300 299 297 295 294 293 293 293 292 290 288 288 287 286 285 285 284 283 282 281 281 281 281 281 279 277 275 273 272 270 269 267 265 264 263 263 263 262
298 298 297 296 296 296 295 294 293 292 290 288 288 288 287 285 284 284 283 282 282 282 281 280 280 278 276 274 273 272 270 267 266 265 265 264 263 262
298 298 299 299 299 298 297 295 295 293 292 290 289 288 287 286 285 285 284 282 282 282 280 279 279 278 277 276 274 273 271 269 269 267 266 266 265 264
297 299 300 300 300 298 297 296 295 294 294 293 291 289 287 287 286 285 284 283 282 281 280 279 279 279 278 276 276 275 274 271 269 268 267 266 265 265
297 299 300 301 300 299 298 297 296 295 293 292 291 290 288 288 287 287 285 283 280 279 279 280 280 280 279 278 277 276 275 274 271 269 267 266 264 263
297 298 299 300 300 299 298 298 297 296 295 292 291 290 289 289 288 287 287 285 283 281 280 279 278 278 277 277 276 275 274 273 272 269 268 266 264 262
297 298 299 299 300 299 298 298 299 298 296 294 292 291 291 290 289 289 288 287 285 283 281 279 277 276 276 276 275 274 274 273 272 270 269 268 266 264
297 298 299 300 300 300 299 299 299 299 298 297 294 293 292 290 290 290 290 289 287 285 282 279 278 277 276 275 276 274 273 272 272 270 269 268 266 265
298 298 299 299 300 300 299 299 300 301 300 298 296 294 292 292 291 291 291 290 288 284 282 281 279 277 276 276 275 274 274 274 273 270 268 267 265 263
298 298 299 299 299 299 299 300 300 301 300 299 297 296 295 294 292 291 291 291 290 287 285 282 281 280 278 275 275 274 273 273 273 271 270 269 266 263
298 298 298 299 299 299 300 301 302 301 300 298 297 297 296 295 293 292 292 291 290 289 286 283 282 279 277 274 273 273 271 270 270 270 269 267 267 265
Height
5856 5854 5853 5851 5849 5847 5846 5845 5844 5843 5842 5841 5840 5839 5839 5839 5838 5838 5838 5837 5837 5837 5836 5836 5836 5836 5836 5836 5836 5837 5836 5836 5837 5837 5838 5838 5838 5839
5851 5850 5848 5846 5844 5842 5841 5840 5839 5838 5837 5836 5835 5835 5834 5834 5833 5833 5833 5833 5832 5832 5832 5832 5831 5830 5830 5831 5831 5831 5832 5832 5832 5832 5832 5833 5833 5834
5847 5845 5843 5841 5839 5837 5836 5834 5833 5832 5831 5831 5830 5830 5829 5829 5828 5828 5828 5827 5827 5826 5826 5826 5826 5825 5825 5825 5825 5826 5826 5826 5826 5827 5827 5827 5828 5828
5841 5839 5837 5836 5834 5832 5830 5829 5827 5826 5826 5825 5825 5824 5823 5823 5822 5822 5822 5821 5821 5821 5820 5820 5820 5820 5819 5819 5819 5819 5820 5820 5820 5821 5821 5821 5822 5822
5836 5834 5832 5830 5828 5826 5824 5823 5821 5820 5819 5819 5818 5818 5817 5816 5816 5815 5815 5814 5814 5814 5814 5814 5813 5813 5813 5813 5813 5813 5813 5813 5814 5814 5814 5815 5815 5815
5829 5827 5826 5824 5822 5820 5818 5817 5815 5814 5813 5812 5812 5811 5810 5809 5809 5808 5808 5807 5807 5807 5807 5806 5806 5806 5806 5806 5806 5805 5806 5806 5806 5806 5807 5807 5808 5808
5823 5821 5819 5817 5815 5813 5811 5810 5808 5807 5806 5806 5805 5804 5803 5802 5802 5801 5800 5800 5800 5799 5799 5799 5798 5798 5798 5798 5798 5798 5798 5798 5798 5799 5799 5800 5800 5801
5816 5814 5812 5810 5808 5807 5805 5803 5802 5800 5799 5798 5798 5797 5796 5795 5794 5792 5792 5792 5792 5791 5790 5790 5789 5789 5789 5789 5789 5789 5789 5789 5789 5790 5790 5791 5792 5792
5809 5808 5806 5803 5801 5799 5797 5796 5794 5792 5792 5791 5790 5789 5787 5786 5785 5784 5784 5783 5783 5782 5781 5781 5780 5779 5779 5779 5779 5779 5779 5779 5779 5780 5781 5781 5782 5783
5803 5801 5799 5796 5794 5792 5790 5788 5786 5785 5783 5782 5781 5780 5779 5777 5776 5775 5774 5774 5773 5772 5771 5771 5770 5769 5769 5768 5768 5768 5768 5768 5769 5769 5770 5771 5772 5773
5795 5793 5791 5789 5787 5784 5782 5780 5778 5776 5775 5773 5772 5771 5770 5768 5767 5766 5765 5764 5764 5763 5761 5761 5760 5759 5758 5758 5757 5757 5757 5757 5757 5758 5759 5760 5761 5762
5788 5786 5783 5781 5778 5776 5774 5772 5770 5768 5766 5765 5763 5762 5760 5759 5758 5757 5756 5755 5754 5753 5751 5750 5749 5748 5748 5747 5746 5746 5745 5745 5746 5747 5747 5748 5749 5751
5780 5778 5775 5773 5770 5768 5765 5763 5761 5759 5758 5756 5754 5753 5751 5750 5748 5747 5746 5745 5744 5743 5741 5740 5739 5737 5737 5736 5736 5735 5734 5734 5735 5735 5736 5737 5738 5739
5773 5770 5767 5765 5762 5760 5757 5755 5753 5751 5749 5747 5745 5743 5742 5740 5738 5737 5735 5734 5733 5732 5730 5729 5728 5727 5726 5725 5725 5724 5724 5723 5724 5724 5725 5725 5726 5727
5765 5762 5760 5757 5754 5752 5749 5747 5744 5742 5740 5738 5736 5734 5732 5730 5728 5727 5724 5723 5721 5720 5719 5718 5717 5716 5715 5714 5714 5713 5713 5713 5712 5713 5714 5714 5715 5716
5757 5755 5752 5749 5746 5743 5741 5738 5735 5733 5731 5728 5726 5724 5722 5720 5718 5716 5714 5712 5711 5709 5707 5706 5705 5704 5703 5703 5702 5702 5701 5701 5701 5702 5702 5703 5703 5704
5749 5746 5744 5741 5738 5735 5732 5729 5727 5724 5722 5719 5717 5714 5712 5710 5707 5705 5703 5701 5699 5698 5696 5695 5693 5692 5691 5691 5690 5690 5690 5690 5690 5690 5690 5691 5692 5693
5741 5738 5735 5733 5730 5727 5724 5721 5718 5715 5712 5709 5706 5704 5702 5699 5697 5694 5692 5689 5687 5685 5684 5683 5682 5681 5681 5680 5679 5678 5678 5678 5678 5678 5679 5680 5681 5681
5733 5730 5727 5724 5721 5718 5715 5712 5709 5705 5702 5699 5696 5693 5691 5688 5686 5683 5681 5679 5676 5674 5672 5670 5670 5669 5670 5669 5668 5667 5667 5667 5667 5667 5668 5669 5670 5670
5724 5721 5719 5716 5712 5709 5706 5702 5699 5695 5692 5689 5686 5683 5680 5677 5675 5673 5670 5668 5665 5663 5661 5659 5658 5658 5658 5658 5658 5657 5656 5656 5656 5657 5657 5658 5658 5659
5716 5713 5710 5707 5703 5700 5697 5693 5689 5685 5682 5678 5675 5672 5670 5667 5665 5662 5660 5657 5654 5652 5651 5649 5647 5647 5646 5646 5646 5646 5645 5645 5645 5645 5646 5647 5648 5649
5707 5704 5701 5698 5694 5691 5687 5683 5680 5676 5672 5668 5665 5662 5659 5656 5654 5651 5649 5647 5644 5642 5640 5639 5637 5636 5635 5635 5635 5635 5635 5635 5634 5634 5635 5636 5637 5638
5698 5695 5691 5688 5684 5681 5677 5674 5670 5666 5662 5658 5655 5652 5649 5646 5643 5641 5639 5636 5634 5632 5630 5629 5627 5625 5624 5624 5624 5624 5624 5624 5624 5625 5626 5626 5627 5628